Temp
8 7 7 7 7 7 7 6 6 6 6 6 6 6 6 6 6 6 5 5 5 5 5 5 6 5 5 5 5 5 5 5 5 5 5 5 5 5 4 4 4 4 4
8 7 7 7 6 6 6 6 6 6 6 6 6 6 6 6 6 5 5 5 5 5 5 5 5 5 5 5 5 5 5 5 4 4 4 4 4 4 4 4 4 4 4
8 7 7 7 6 6 6 6 6 5 5 5 5 5 5 5 5 5 5 5 5 5 5 5 5 4 4 4 4 4 4 4 4 4 4 4 4 4 4 4 5 4 4
7 7 7 7 6 6 6 5 5 5 5 5 5 5 4 4 4 4 4 4 4 4 4 4 4 4 4 3 4 4 4 4 4 3 3 4 4 4 4 4 4 4 4
7 7 7 6 6 6 5 5 5 5 5 4 4 4 4 4 4 4 4 4 4 4 4 4 4 3 3 3 3 3 3 3 3 3 3 3 3 3 2 2 3 3 4
7 7 7 6 6 5 5 5 5 4 4 4 4 4 4 4 3 3 3 3 3 3 4 3 3 3 2 2 2 2 3 3 2 2 2 2 2 1 1 1 1 1 2
7 7 7 6 5 5 5 5 4 4 4 4 3 3 3 3 3 3 3 3 3 3 3 2 2 2 2 2 2 1 2 2 2 1 1 1 1 0 0 -0 -0 -0 -0
6 6 6 5 5 5 5 4 4 4 4 3 3 3 3 3 2 2 2 2 2 2 2 2 2 2 2 1 1 1 1 1 1 0 0 0 -0 -0 -0 -0 -1 -2 -1
5 6 6 5 5 5 4 4 4 4 3 3 3 2 2 2 2 2 1 1 1 1 1 1 1 1 1 0 0 0 -0 -0 -1 -1 -1 -1 -1 -1 -1 -1 -1 -2 -2
5 5 5 4 5 4 4 3 3 3 3 2 2 2 2 1 1 1 1 1 1 1 0 -0 -0 -0 -0 -1 -1 -1 -1 -1 -2 -2 -2 -2 -2 -2 -2 -1 -2 -3 -2
5 4 4 4 4 4 3 3 3 2 2 2 2 1 1 1 0 0 0 0 -0 -0 -1 -1 -1 -1 -1 -1 -2 -2 -2 -3 -3 -3 -3 -3 -3 -3 -3 -2 -2 -3 -3
5 4 4 3 3 3 3 3 2 2 2 1 1 1 0 0 -0 -0 -1 -1 -1 -1 -1 -2 -2 -2 -1 -2 -3 -3 -3 -4 -4 -4 -4 -4 -3 -4 -3 -3 -3 -3 -4
4 4 4 3 3 2 2 2 1 1 1 0 -0 -0 -1 -1 -1 -1 -2 -2 -2 -2 -2 -2 -2 -2 -2 -3 -4 -4 -4 -4 -5 -5 -4 -4 -4 -4 -4 -4 -4 -4 -4
2 2 2 2 2 2 1 -1 -0 -1 -1 -1 -1 -1 -1 -2 -2 -2 -3 -3 -3 -3 -4 -4 -3 -3 -2 -3 -5 -5 -5 -6 -6 -5 -5 -5 -5 -5 -5 -5 -5 -5 -6
2 2 2 2 2 -0 -1 -1 -2 -4 -2 -2 -2 -2 -3 -3 -3 -3 -4 -5 -5 -6 -5 -5 -4 -4 -4 -4 -5 -5 -6 -6 -6 -6 -6 -6 -6 -6 -5 -5 -6 -6 -6
1 1 2 2 1 1 0 -0 -4 -5 -5 -6 -3 -5 -5 -5 -5 -6 -6 -5 -5 -7 -6 -7 -6 -5 -5 -5 -6 -6 -7 -7 -6 -7 -7 -6 -6 -6 -6 -7 -7 -7 -7
2 1 0 1 0 -0 -1 -1 -1 -2 -2 -5 -6 -6 -7 -7 -7 -6 -6 -6 -6 -6 -7 -9 -8 -6 -6 -6 -7 -7 -7 -7 -8 -8 -8 -8 -7 -7 -8 -8 -8 -9 -8
0 -0 -0 -1 -1 -0 -0 -1 -2 -2 -3 -4 -5 -6 -7 -8 -7 -7 -7 -6 -6 -6 -6 -10 -9 -8 -7 -7 -7 -7 -8 -8 -8 -9 -9 -9 -8 -8 -8 -8 -8 -9 -9
-1 -0 -1 -2 -1 -1 -1 -2 -3 -4 -4 -5 -6 -7 -8 -8 -7 -7 -7 -7 -6 -6 -6 -10 -10 -10 -9 -8 -8 -8 -8 -8 -9 -9 -9 -9 -9 -10 -9 -9 -10 -10 -10
-1 -1 -1 -3 -3 -3 -3 -4 -4 -5 -5 -7 -7 -9 -8 -8 -7 -7 -7 -7 -7 -7 -8 -10 -10 -11 -10 -9 -8 -8 -9 -9 -10 -10 -9 -10 -11 -11 -11 -11 -11 -11 -11
-1 -1 -2 -3 -4 -4 -4 -5 -5 -6 -6 -8 -8 -8 -8 -7 -8 -8 -8 -8 -8 -8 -8 -10 -11 -12 -10 -9 -9 -9 -9 -9 -10 -10 -10 -11 -11 -11 -12 -12 -12 -12 -12
-2 -2 -2 -3 -4 -4 -4 -5 -6 -6 -7 -7 -7 -8 -8 -8 -8 -9 -9 -8 -8 -8 -9 -10 -11 -10 -10 -10 -10 -10 -10 -10 -11 -11 -11 -12 -12 -12 -12 -12 -13 -13 -13
-3 -3 -3 -3 -4 -5 -5 -6 -6 -7 -7 -8 -8 -8 -8 -9 -9 -9 -9 -9 -9 -10 -10 -11 -11 -11 -11 -11 -10 -11 -11 -11 -12 -12 -12 -12 -13 -13 -13 -13 -13 -14 -14
-4 -4 -4 -4 -5 -5 -6 -7 -7 -8 -8 -8 -8 -9 -9 -9 -9 -10 -10 -10 -10 -10 -11 -11 -11 -11 -11 -11 -12 -12 -12 -12 -13 -13 -13 -13 -13 -13 -13 -13 -14 -14 -15
-4 -5 -5 -5 -7 -7 -8 -8 -8 -8 -8 -9 -9 -10 -10 -10 -10 -10 -10 -10 -11 -11 -11 -11 -11 -12 -12 -12 -13 -13 -13 -13 -13 -14 -14 -14 -14 -13 -13 -13 -14 -15 -15
-5 -5 -5 -6 -8 -8 -9 -9 -9 -9 -10 -10 -10 -10 -10 -11 -11 -11 -11 -11 -11 -11 -11 -12 -12 -12 -13 -13 -13 -14 -14 -14 -14 -13 -14 -14 -14 -15 -13 -14 -15 -15 -16
Height
3143 3144 3146 3147 3149 3150 3152 3152 3152 3152 3152 3151 3149 3151 3153 3153 3151 3150 3148 3147 3145 3143 3141 3139 3138 3137 3136 3135 3134 3133 3132 3131 3130 3129 3128 3127 3126 3126 3125 3125 3124 3124 3124
3138 3140 3142 3144 3145 3146 3148 3148 3148 3148 3148 3148 3147 3144 3149 3148 3148 3147 3145 3144 3142 3140 3138 3136 3134 3134 3133 3131 3131 3130 3129 3127 3126 3125 3124 3123 3122 3121 3121 3120 3120 3120 3119
3134 3135 3137 3139 3141 3142 3142 3143 3144 3144 3144 3143 3143 3142 3140 3143 3143 3143 3142 3140 3138 3135 3133 3132 3131 3130 3129 3128 3127 3127 3125 3124 3123 3122 3121 3119 3119 3118 3117 3116 3115 3114 3113
3127 3130 3132 3134 3135 3136 3137 3138 3139 3139 3140 3139 3139 3139 3138 3135 3138 3138 3137 3136 3134 3131 3129 3128 3127 3126 3125 3123 3123 3122 3120 3119 3118 3117 3116 3114 3113 3112 3111 3111 3110 3107 3107
3122 3124 3126 3128 3129 3130 3132 3132 3133 3134 3134 3134 3133 3134 3133 3132 3131 3131 3132 3131 3130 3128 3125 3123 3123 3122 3121 3119 3118 3117 3116 3115 3113 3112 3110 3109 3108 3107 3106 3104 3103 3101 3098
3115 3118 3120 3123 3124 3125 3126 3127 3127 3127 3128 3128 3128 3127 3127 3127 3127 3126 3125 3122 3122 3123 3122 3120 3118 3118 3116 3114 3114 3113 3112 3110 3108 3107 3105 3104 3103 3101 3100 3099 3099 3098 3094
3108 3111 3113 3116 3118 3119 3120 3121 3121 3121 3121 3122 3122 3120 3120 3120 3120 3120 3120 3119 3117 3114 3113 3114 3112 3113 3112 3111 3109 3109 3107 3106 3103 3101 3099 3098 3098 3097 3095 3094 3093 3094 3090
3100 3103 3106 3108 3111 3112 3113 3115 3114 3115 3115 3115 3116 3115 3114 3114 3114 3114 3114 3113 3113 3112 3109 3105 3105 3106 3107 3107 3104 3102 3101 3100 3097 3095 3095 3093 3092 3091 3090 3089 3088 3088 3087
3092 3095 3099 3100 3103 3104 3106 3108 3107 3108 3108 3108 3108 3109 3107 3107 3107 3107 3108 3107 3105 3105 3105 3102 3100 3097 3099 3099 3098 3096 3095 3094 3092 3091 3089 3087 3086 3085 3085 3085 3084 3081 3081
3084 3087 3092 3093 3095 3097 3098 3100 3100 3101 3101 3101 3100 3101 3100 3100 3099 3099 3099 3101 3100 3098 3096 3096 3095 3093 3093 3092 3090 3088 3088 3088 3087 3085 3083 3081 3081 3079 3079 3079 3078 3076 3075
3076 3078 3083 3084 3086 3089 3091 3091 3092 3093 3094 3094 3092 3093 3092 3091 3092 3092 3092 3094 3093 3093 3090 3088 3087 3087 3086 3087 3085 3084 3083 3081 3079 3078 3077 3076 3075 3073 3072 3073 3071 3069 3067
3067 3068 3072 3075 3076 3080 3082 3083 3083 3083 3084 3086 3085 3085 3085 3085 3085 3083 3085 3085 3085 3086 3086 3083 3081 3080 3081 3081 3078 3077 3076 3075 3074 3072 3071 3069 3067 3065 3064 3066 3064 3063 3060
3057 3059 3063 3065 3067 3070 3072 3073 3074 3074 3074 3077 3077 3078 3079 3078 3079 3078 3075 3075 3076 3078 3078 3076 3075 3073 3073 3073 3071 3070 3069 3069 3067 3065 3063 3061 3059 3056 3057 3057 3055 3054 3053
3047 3051 3052 3054 3054 3056 3058 3061 3063 3064 3064 3066 3067 3069 3071 3071 3071 3072 3072 3070 3068 3067 3067 3066 3066 3066 3066 3065 3063 3062 3061 3060 3059 3058 3056 3055 3053 3050 3049 3047 3046 3044 3044
3038 3040 3041 3041 3041 3039 3042 3043 3051 3052 3054 3056 3058 3060 3062 3062 3064 3064 3064 3064 3064 3062 3060 3058 3058 3057 3058 3057 3055 3054 3053 3051 3051 3050 3048 3045 3043 3043 3042 3040 3037 3035 3033
3027 3031 3032 3033 3032 3031 3032 3032 3031 3033 3038 3041 3046 3047 3051 3054 3056 3054 3054 3055 3056 3055 3053 3052 3051 3050 3049 3048 3046 3045 3045 3043 3041 3040 3038 3035 3034 3034 3032 3030 3028 3026 3023
3018 3021 3023 3024 3024 3021 3022 3022 3026 3028 3027 3028 3033 3035 3041 3043 3043 3043 3045 3046 3047 3046 3044 3044 3044 3042 3040 3039 3038 3037 3036 3036 3034 3032 3027 3026 3025 3023 3022 3020 3018 3017 3014
3009 3012 3013 3015 3016 3016 3016 3016 3018 3018 3019 3020 3023 3026 3030 3031 3032 3034 3035 3036 3036 3036 3036 3034 3036 3035 3034 3031 3030 3030 3030 3027 3027 3024 3020 3016 3016 3013 3011 3009 3007 3005 3004
2998 2999 3001 3004 3007 3007 3006 3006 3009 3010 3011 3014 3015 3018 3020 3022 3024 3024 3024 3024 3025 3025 3024 3025 3028 3028 3027 3024 3022 3019 3020 3019 3017 3015 3012 3008 3007 3004 3000 2998 2995 2994 2992
2991 2991 2993 2995 2996 2998 2997 2998 3001 3003 3004 3005 3005 3009 3013 3014 3014 3013 3014 3013 3014 3014 3014 3014 3015 3018 3018 3016 3013 3011 3010 3006 3005 3001 2998 2997 2995 2992 2989 2985 2982 2981 2979
2983 2984 2984 2985 2987 2988 2989 2990 2991 2992 2993 2995 2999 3002 3004 3004 3003 3002 3002 3003 3004 3004 3004 3004 3004 3006 3007 3005 3003 3001 2997 2995 2994 2990 2986 2986 2982 2979 2975 2971 2968 2968 2964
2976 2976 2977 2977 2979 2980 2982 2983 2983 2983 2987 2990 2992 2994 2994 2993 2992 2992 2993 2994 2994 2994 2993 2994 2995 2997 2995 2994 2992 2988 2986 2983 2980 2980 2973 2974 2968 2965 2961 2957 2957 2954 2949
2968 2968 2968 2969 2970 2972 2974 2974 2975 2978 2981 2984 2985 2985 2984 2984 2984 2985 2985 2986 2986 2985 2986 2986 2987 2986 2985 2983 2980 2979 2975 2971 2968 2965 2959 2958 2957 2952 2947 2944 2943 2938 2935
2958 2959 2959 2960 2961 2964 2965 2966 2968 2971 2974 2976 2976 2977 2977 2977 2978 2978 2978 2977 2978 2978 2977 2979 2979 2977 2975 2973 2970 2968 2965 2960 2959 2955 2949 2943 2942 2937 2932 2930 2927 2924 2920
2949 2950 2951 2951 2953 2956 2957 2957 2960 2964 2966 2968 2969 2969 2970 2970 2972 2972 2971 2972 2971 2971 2971 2970 2969 2968 2966 2964 2960 2957 2953 2949 2946 2942 2938 2932 2930 2923 2918 2916 2914 2912 2908
2939 2942 2943 2944 2945 2947 2948 2949 2952 2956 2959 2960 2961 2962 2964 2964 2964 2964 2964 2965 2965 2965 2964 2962 2961 2958 2956 2953 2949 2945 2942 2938 2934 2930 2925 2917 2914 2909 2905 2903 2901 2897 2892
Wind_Speed
17 18 16 16 14 15 14 14 13 14 13 13 15 14 13 13 12 11 12 13 16 16 17 17 16 14 15 14 14 14 15 14 15 15 16 17 18 18 19 20 21 22 24
18 19 19 19 17 16 16 17 16 15 15 14 15 18 14 14 14 13 14 15 16 17 17 17 16 14 15 15 15 15 15 15 15 16 17 18 19 21 22 23 24 25 26
19 20 21 21 21 19 19 19 18 17 16 17 17 17 18 16 15 15 16 16 17 18 18 17 17 16 16 16 15 16 15 16 16 16 17 18 20 22 24 26 29 29 28
23 22 22 22 22 22 21 20 19 19 18 18 18 18 18 20 17 17 18 17 18 19 18 18 18 17 16 17 17 17 16 16 17 17 17 18 18 19 21 24 26 28 30
26 25 25 24 24 25 23 23 21 21 20 20 20 19 19 20 20 21 20 20 19 18 19 19 19 17 17 18 18 18 17 17 17 17 17 17 18 18 19 21 24 26 28
29 28 27 26 26 26 26 25 24 23 23 22 22 23 22 22 21 22 21 23 21 19 19 19 20 18 18 20 20 19 19 19 18 17 17 17 17 17 17 18 20 22 24
33 31 30 30 29 28 28 28 28 26 26 25 24 24 24 25 24 24 21 21 22 24 23 21 21 19 19 19 22 20 20 20 19 18 17 18 18 18 17 17 18 19 19
37 36 32 32 31 31 31 30 30 29 29 28 25 27 27 26 25 25 23 23 23 21 23 24 22 22 20 20 21 21 21 22 20 18 19 18 18 18 18 18 19 18 19
39 37 34 35 35 33 32 31 32 32 30 30 29 28 29 28 27 27 26 25 24 23 21 21 23 25 23 21 21 21 22 22 21 21 21 21 20 19 20 21 21 19 20
40 39 36 37 36 34 34 34 33 33 33 32 32 31 31 31 31 31 28 24 24 23 23 21 22 24 24 22 23 23 22 21 21 21 22 23 23 21 21 23 22 20 20
41 40 38 38 38 36 36 37 35 35 35 34 35 33 33 34 33 31 30 27 27 23 24 25 25 25 26 24 23 23 22 22 24 23 24 25 25 25 25 27 25 23 22
41 40 40 40 39 39 38 39 37 37 36 36 36 35 34 33 32 33 31 29 28 26 24 25 27 28 26 25 25 24 23 23 25 26 27 29 29 29 30 31 29 28 27
41 42 39 37 38 39 41 41 40 39 39 38 36 35 35 34 33 32 34 33 31 29 27 26 28 29 28 24 24 24 25 25 27 28 29 31 33 33 35 36 33 31 30
36 35 35 42 47 49 43 43 42 42 40 40 38 37 35 35 35 34 32 32 31 31 31 30 31 30 28 27 25 25 26 27 28 29 30 32 33 33 37 36 34 34 33
37 37 36 42 49 50 44 46 44 43 43 40 40 37 35 36 36 33 29 31 30 31 30 34 36 33 28 26 28 27 28 30 30 30 32 32 33 36 39 38 37 36 36
37 38 38 42 46 49 48 51 50 52 50 38 43 41 39 37 35 37 40 36 41 32 36 33 36 36 32 28 29 29 28 30 32 32 34 34 36 37 38 37 35 37 39
26 27 34 40 45 44 44 44 42 46 43 51 51 44 38 39 41 41 44 40 44 38 34 31 34 37 35 32 31 31 31 31 31 32 35 36 38 38 37 37 37 38 39
27 29 30 32 36 40 40 42 38 35 42 48 47 41 39 40 42 46 47 50 45 36 36 27 33 35 35 36 35 33 32 33 31 33 36 39 39 39 40 40 41 42 43
37 37 36 35 37 38 41 40 35 29 34 39 38 36 40 45 48 52 52 50 42 39 36 30 32 32 35 37 36 36 35 33 32 34 37 39 38 40 42 42 43 45 46
33 33 31 30 31 35 39 39 35 34 34 34 30 37 44 47 48 50 49 46 39 34 33 37 31 30 33 35 37 37 35 37 38 38 41 40 39 41 43 45 45 45 46
32 31 31 31 30 33 36 37 37 37 34 32 37 40 44 45 45 48 43 34 36 34 35 32 31 27 32 34 36 36 38 39 38 41 43 41 42 43 44 46 45 45 47
23 23 26 27 27 30 33 35 37 38 36 37 36 36 38 40 43 33 32 33 33 35 34 28 22 30 32 35 36 37 39 41 42 40 45 42 43 44 45 46 44 43 46
21 20 22 24 25 26 28 32 38 37 34 33 33 34 38 36 30 30 30 32 32 27 26 20 28 31 32 35 37 39 40 42 43 42 47 45 42 45 46 46 44 45 45
23 22 22 24 24 25 28 30 31 29 27 29 32 35 34 28 26 26 28 27 25 23 21 25 28 32 34 36 38 40 39 41 40 41 45 48 44 47 47 46 46 46 46
23 23 24 26 25 28 28 26 24 22 24 31 32 26 25 23 23 26 25 24 20 22 24 27 29 32 34 36 36 38 38 41 41 42 43 46 44 47 49 49 48 45 44
26 26 25 25 25 26 31 22 21 24 29 26 24 24 22 22 21 23 20 20 22 24 28 29 31 32 32 33 35 37 39 41 44 45 44 47 47 49 53 50 46 44 43
Wind_Direction
245 244 244 246 245 249 252 254 254 255 256 261 270 274 273 270 272 280 294 308 314 313 310 311 313 314 307 308 305 307 309 311 314 314 316 316 315 313 311 308 303 298 294
250 250 246 250 250 252 252 254 255 257 260 264 271 278 272 269 270 280 291 302 308 308 307 306 306 305 307 307 307 304 302 305 310 311 311 312 313 312 311 309 307 304 300
250 252 249 250 251 253 253 256 258 259 264 266 268 273 282 271 267 270 281 297 307 309 307 304 303 302 304 304 302 300 306 306 305 305 306 308 308 309 309 308 306 303 299
248 251 255 255 254 254 258 260 262 264 266 271 274 277 277 281 276 273 278 290 302 305 303 300 297 298 300 300 298 298 300 299 302 304 305 306 307 307 306 304 303 302 299
247 251 256 257 255 258 260 263 266 268 270 272 274 274 272 272 276 278 280 286 296 297 297 294 292 294 296 293 292 292 293 295 300 303 308 309 307 306 307 307 304 299 295
246 250 256 257 255 259 261 264 266 267 268 269 272 272 272 271 270 272 282 295 299 294 291 289 288 290 290 289 288 291 293 295 299 303 305 303 305 306 306 305 306 306 301
247 250 252 257 254 258 259 260 261 264 267 269 269 272 272 272 273 275 279 286 294 297 294 287 287 288 286 290 291 293 293 294 297 302 302 302 304 306 306 305 305 304 304
246 249 252 254 255 255 258 261 262 263 265 268 267 267 271 272 273 274 277 280 283 286 285 290 291 289 288 287 289 289 290 291 295 298 298 298 300 299 298 301 297 299 304
245 250 253 252 254 256 258 258 260 263 264 266 267 268 269 270 270 268 266 272 281 283 281 284 288 289 291 290 286 285 288 291 297 297 297 297 295 296 298 295 292 298 301
245 250 252 254 257 259 257 256 259 261 262 265 265 265 265 264 262 264 266 269 276 285 286 284 281 282 284 286 283 285 286 288 290 291 292 292 292 293 294 288 288 297 301
246 249 251 254 257 258 257 257 257 259 261 262 263 263 262 265 266 266 269 273 276 279 284 282 280 279 279 282 282 282 287 290 292 292 292 290 292 292 293 288 287 294 297
247 247 250 251 254 255 256 256 256 256 258 258 260 262 263 265 269 272 272 271 272 273 273 276 280 280 281 284 286 287 287 289 290 293 295 294 291 293 292 291 291 292 294
247 249 252 251 260 261 257 254 254 251 257 256 255 257 259 261 262 264 269 272 275 276 274 276 278 279 283 285 287 288 288 289 289 289 289 290 292 296 294 292 293 294 294
252 257 256 249 246 247 249 247 248 247 251 254 254 255 257 258 259 258 258 268 276 280 281 281 282 283 286 289 286 285 288 287 288 290 291 290 291 294 292 292 293 293 296
254 255 256 250 245 240 239 240 243 243 244 250 254 254 257 260 260 256 253 256 260 265 275 278 280 282 280 279 281 285 287 291 293 293 293 293 295 292 289 290 292 293 294
251 252 257 258 256 253 252 247 240 235 237 244 246 248 253 259 253 252 253 253 267 256 260 269 277 279 280 281 283 286 288 291 293 293 292 293 292 290 289 290 293 293 292
275 266 259 263 269 270 257 264 262 252 249 242 243 244 252 249 255 251 261 264 266 253 258 262 271 276 280 282 283 285 287 289 290 294 293 292 288 287 289 290 291 289 288
277 273 269 268 269 273 277 273 267 269 268 249 249 249 249 253 251 259 263 272 262 260 259 254 262 269 277 278 278 281 283 285 289 290 291 289 291 291 291 291 289 288 289
265 265 261 260 262 265 266 270 271 271 266 259 253 250 249 254 267 267 272 281 260 257 259 253 255 262 267 275 279 282 284 287 288 286 285 285 290 290 289 288 288 289 290
272 273 273 270 266 270 270 270 271 265 263 260 256 247 250 267 279 275 278 275 257 256 256 255 253 259 265 271 275 279 285 289 290 291 290 293 293 292 292 292 291 291 292
269 274 278 277 273 268 269 270 268 267 264 257 252 258 264 275 280 278 276 255 260 261 261 255 255 265 268 272 278 285 289 290 292 292 292 293 294 293 292 292 293 295 293
273 277 277 276 277 273 273 274 268 263 257 260 268 273 278 285 284 262 255 260 261 269 263 256 270 270 275 279 283 287 289 290 291 292 291 294 295 295 294 292 294 291 288
267 268 271 274 274 274 275 273 268 267 268 268 274 281 281 276 261 260 262 269 271 265 261 271 268 272 276 281 285 288 290 292 294 298 297 297 295 294 293 295 295 293 293
274 268 266 272 271 277 278 278 272 265 265 271 275 272 273 268 265 267 269 263 255 266 270 268 273 278 282 286 287 288 291 292 295 295 295 297 298 296 295 297 297 297 295
269 271 268 268 279 283 282 276 262 256 266 265 270 267 265 265 268 267 261 263 270 267 271 272 274 278 281 284 287 291 293 294 295 295 295 295 296 296 296 295 294 294 290
266 267 262 268 267 269 267 251 244 252 255 262 261 259 258 262 259 256 264 267 268 271 273 277 280 283 286 289 291 294 296 296 297 296 301 302 303 300 294 292 294 295 293